User: anonymous   Login
Location: Follega
(52.8850°N, 5.7362°E)
Time: 17:28:06
(UTC+00:00)
Language:

STARLINK-1230 - Orbit

View from above orbital plane
View from above orbital plane
View from above satellite
View from above satellite

Ground track
Ground track

The orbit data is extracted from the following two-line orbital elements,

1 45189C 20012M   20228.35134243  .00033860  00000-0  23187-2 0  2289
2 45189  52.9998 170.1396 0001528  85.4205 134.4563 15.05554939    11
Epoch (UTC): 15 August 2020 08:25:55
Eccentricity: 0.0001528
inclination: 52.9998°
perigee height: 549 km
apogee height: 551 km
right ascension of ascending node: 170.1396°
argument of perigee: 85.4205°
revolutions per day: 15.05554939
mean anomaly at epoch: 134.4563°
orbit number at epoch: 1

The dashed part of the orbit path shows where the satellite is in the earth's shadow,  

DLR